QPF
0.06 0.05 0.09 0.07 0.03 0.02 0.03 0.03 0.02 0.03 0.04 0.04 0.05 0.04 0.04 0.05 0.03 0.02 0.02 0.02 0.02 0.02 0.04 0.03 0.02 0.03 0.03 0.02 0.02 0.03 0.03 0.03 0.03 0.02 0.02 0.02 0.03 0.03 0.05 0.08 0.08 0.04 0.04
0.06 0.06 0.09 0.08 0.04 0.03 0.03 0.04 0.03 0.04 0.05 0.04 0.05 0.05 0.04 0.04 0.03 0.02 0.02 0.03 0.03 0.03 0.04 0.04 0.02 0.02 0.02 0.02 0.03 0.04 0.05 0.04 0.02 0.02 0.02 0.02 0.03 0.03 0.05 0.06 0.07 0.04 0.06
0.04 0.04 0.06 0.08 0.06 0.05 0.05 0.05 0.05 0.04 0.05 0.04 0.04 0.05 0.04 0.05 0.05 0.02 0.02 0.04 0.05 0.04 0.04 0.03 0.02 0.02 0.02 0.03 0.04 0.05 0.06 0.05 0.03 0.02 0.02 0.01 0.01 0.03 0.04 0.06 0.08 0.07 0.05
0.02 0.02 0.04 0.07 0.06 0.04 0.05 0.05 0.06 0.07 0.08 0.06 0.04 0.05 0.05 0.06 0.06 0.06 0.06 0.05 0.04 0.03 0.03 0.02 0.01 0.02 0.02 0.03 0.03 0.04 0.04 0.04 0.05 0.02 0.01 0.00 0.01 0.04 0.05 0.06 0.08 0.07 0.06
0.02 0.02 0.05 0.08 0.06 0.05 0.06 0.06 0.06 0.08 0.09 0.05 0.06 0.07 0.07 0.06 0.07 0.07 0.07 0.04 0.02 0.03 0.03 0.02 0.02 0.01 0.02 0.02 0.02 0.04 0.04 0.03 0.04 0.02 0.01 0.01 0.02 0.05 0.05 0.06 0.08 0.07 0.06
0.03 0.04 0.05 0.07 0.07 0.07 0.07 0.07 0.07 0.08 0.07 0.05 0.06 0.06 0.07 0.06 0.06 0.06 0.05 0.05 0.04 0.04 0.03 0.02 0.02 0.03 0.03 0.03 0.03 0.02 0.02 0.02 0.02 0.01 0.01 0.02 0.02 0.05 0.06 0.07 0.09 0.09 0.08
0.04 0.05 0.05 0.06 0.07 0.08 0.07 0.06 0.06 0.08 0.09 0.06 0.06 0.07 0.07 0.07 0.07 0.06 0.05 0.07 0.05 0.04 0.03 0.02 0.03 0.04 0.04 0.04 0.02 0.01 0.01 0.01 0.01 0.00 0.01 0.03 0.03 0.05 0.07 0.09 0.08 0.09 0.08
0.04 0.04 0.03 0.05 0.08 0.10 0.09 0.06 0.07 0.09 0.10 0.12 0.10 0.09 0.08 0.07 0.06 0.05 0.05 0.04 0.03 0.02 0.03 0.03 0.04 0.04 0.03 0.02 0.01 0.02 0.02 0.01 0.00 0.00 0.01 0.03 0.05 0.06 0.08 0.08 0.07 0.08 0.10
0.07 0.05 0.02 0.03 0.07 0.08 0.08 0.06 0.07 0.09 0.13 0.20 0.12 0.09 0.07 0.05 0.04 0.04 0.04 0.03 0.04 0.03 0.04 0.04 0.04 0.03 0.02 0.02 0.02 0.02 0.03 0.01 0.00 0.00 0.00 0.03 0.08 0.07 0.07 0.07 0.08 0.09 0.10
0.04 0.04 0.03 0.04 0.04 0.02 0.03 0.05 0.06 0.07 0.11 0.17 0.11 0.09 0.07 0.05 0.04 0.05 0.05 0.06 0.06 0.05 0.06 0.06 0.05 0.04 0.04 0.02 0.01 0.02 0.02 0.01 0.00 0.00 0.01 0.03 0.09 0.08 0.06 0.07 0.08 0.09 0.09
0.03 0.03 0.03 0.05 0.03 0.02 0.01 0.02 0.03 0.05 0.06 0.07 0.08 0.06 0.05 0.03 0.02 0.03 0.04 0.06 0.07 0.06 0.05 0.04 0.03 0.03 0.03 0.03 0.01 0.01 0.00 0.00 0.00 0.01 0.03 0.08 0.10 0.08 0.07 0.05 0.07 0.10 0.09
0.03 0.02 0.02 0.02 0.01 0.01 0.01 0.02 0.02 0.03 0.03 0.04 0.05 0.03 0.02 0.02 0.01 0.02 0.03 0.05 0.05 0.04 0.03 0.02 0.02 0.02 0.01 0.01 0.00 0.00 0.00 0.00 0.00 0.01 0.07 0.11 0.11 0.09 0.07 0.06 0.08 0.12 0.11
0.03 0.02 0.01 0.01 0.01 0.01 0.01 0.01 0.02 0.03 0.02 0.04 0.04 0.03 0.03 0.03 0.02 0.01 0.01 0.01 0.01 0.01 0.01 0.01 0.00 0.00 0.01 0.01 0.00 0.00 0.00 0.00 0.00 0.01 0.07 0.11 0.09 0.10 0.08 0.09 0.16 0.18 0.15
0.02 0.03 0.01 0.01 0.01 0.00 0.00 0.01 0.02 0.03 0.02 0.03 0.03 0.04 0.04 0.03 0.02 0.01 0.00 0.00 0.00 0.00 0.01 0.00 0.00 0.00 0.00 0.01 0.01 0.00 0.00 0.00 0.00 0.01 0.05 0.08 0.08 0.09 0.08 0.09 0.11 0.14 0.15
0.03 0.03 0.03 0.02 0.03 0.01 0.01 0.01 0.01 0.01 0.02 0.03 0.04 0.04 0.04 0.03 0.03 0.02 0.01 0.01 0.00 0.00 0.00 0.00 0.01 0.01 0.01 0.01 0.00 0.00 0.00 0.00 0.00 0.00 0.01 0.04 0.06 0.07 0.07 0.07 0.07 0.07 0.08
0.03 0.03 0.03 0.03 0.04 0.02 0.01 0.01 0.01 0.01 0.02 0.02 0.04 0.05 0.05 0.04 0.03 0.02 0.01 0.01 0.01 0.00 0.00 0.01 0.01 0.01 0.01 0.01 0.01 0.00 0.00 0.00 0.00 0.00 0.00 0.01 0.03 0.04 0.06 0.06 0.07 0.06 0.06
0.03 0.03 0.03 0.03 0.03 0.02 0.01 0.01 0.01 0.02 0.03 0.03 0.03 0.04 0.04 0.03 0.03 0.02 0.01 0.01 0.00 0.00 0.01 0.01 0.01 0.02 0.02 0.01 0.01 0.01 0.00 0.00 0.01 0.01 0.00 0.00 0.01 0.02 0.04 0.05 0.07 0.08 0.07
0.02 0.02 0.03 0.03 0.02 0.02 0.01 0.00 0.01 0.02 0.05 0.06 0.04 0.03 0.02 0.02 0.02 0.01 0.00 0.00 0.00 0.00 0.01 0.01 0.01 0.01 0.01 0.01 0.02 0.01 0.01 0.00 0.00 0.00 0.00 0.00 0.01 0.01 0.02 0.02 0.04 0.06 0.07
0.01 0.02 0.03 0.03 0.02 0.02 0.01 0.01 0.01 0.02 0.04 0.05 0.05 0.03 0.02 0.02 0.01 0.01 0.00 0.00 0.00 0.00 0.00 0.00 0.00 0.00 0.00 0.01 0.02 0.03 0.02 0.01 0.00 0.00 0.00 0.00 0.00 0.00 0.00 0.00 0.01 0.03 0.04
0.02 0.02 0.01 0.01 0.01 0.01 0.01 0.01 0.00 0.01 0.02 0.03 0.03 0.03 0.03 0.03 0.02 0.01 0.01 0.00 0.01 0.00 0.00 0.00 0.00 0.00 0.01 0.01 0.01 0.03 0.04 0.02 0.01 0.00 0.00 0.00 0.00 0.00 0.00 0.00 0.00 0.01 0.02
0.01 0.01 0.01 0.01 0.01 0.01 0.00 0.00 0.00 0.01 0.02 0.03 0.02 0.02 0.01 0.02 0.02 0.02 0.01 0.00 0.00 0.01 0.00 0.00 0.01 0.01 0.02 0.02 0.01 0.01 0.02 0.01 0.01 0.01 0.00 0.00 0.00 0.00 0.00 0.00 0.00 0.00 0.00
0.01 0.01 0.01 0.01 0.00 0.01 0.01 0.01 0.01 0.01 0.01 0.02 0.01 0.01 0.01 0.01 0.01 0.01 0.01 0.01 0.00 0.00 0.00 0.01 0.01 0.02 0.03 0.01 0.00 0.00 0.01 0.01 0.02 0.01 0.01 0.00 0.00 0.00 0.00 0.00 0.00 0.01 0.00
0.02 0.02 0.02 0.02 0.01 0.01 0.01 0.01 0.00 0.00 0.01 0.02 0.01 0.01 0.00 0.01 0.01 0.01 0.00 0.00 0.00 0.00 0.00 0.01 0.01 0.01 0.01 0.01 0.01 0.00 0.00 0.00 0.01 0.02 0.01 0.01 0.00 0.00 0.00 0.00 0.00 0.01 0.01
0.02 0.02 0.02 0.02 0.02 0.01 0.01 0.01 0.01 0.00 0.01 0.02 0.01 0.01 0.01 0.01 0.00 0.00 0.00 0.00 0.00 0.00 0.00 0.01 0.01 0.01 0.01 0.01 0.01 0.01 0.01 0.00 0.01 0.01 0.01 0.01 0.01 0.00 0.00 0.00 0.00 0.00 0.00
0.01 0.01 0.01 0.01 0.01 0.01 0.01 0.01 0.01 0.01 0.01 0.01 0.01 0.01 0.00 0.00 0.01 0.00 0.00 0.00 0.00 0.01 0.01 0.01 0.01 0.01 0.01 0.01 0.01 0.01 0.01 0.01 0.01 0.01 0.01 0.01 0.01 0.00 0.00 0.00 0.00 0.00 0.00
0.01 0.01 0.01 0.02 0.02 0.02 0.01 0.01 0.01 0.01 0.01 0.01 0.00 0.00 0.00 0.00 0.00 0.00 0.00 0.00 0.01 0.01 0.01 0.01 0.01 0.01 0.01 0.01 0.01 0.01 0.01 0.02 0.02 0.01 0.01 0.01 0.01 0.00 0.00 0.00 0.00 0.00 0.00
MSLP
1016.72 1015.97 1015.24 1014.62 1014.14 1013.82 1013.65 1013.58 1013.54 1013.51 1013.42 1013.29 1013.12 1012.93 1012.78 1012.68 1012.65 1012.68 1012.75 1012.83 1012.89 1012.92 1012.89 1012.83 1012.73 1012.61 1012.48 1012.33 1012.18 1012.00 1011.79 1011.57 1011.33 1011.10 1010.91 1010.77 1010.71 1010.73 1010.82 1010.96 1011.14 1011.33 1011.51
1016.86 1016.12 1015.40 1014.77 1014.29 1013.95 1013.76 1013.66 1013.61 1013.57 1013.49 1013.38 1013.25 1013.12 1013.02 1012.98 1012.98 1013.04 1013.12 1013.19 1013.24 1013.25 1013.22 1013.14 1013.03 1012.89 1012.74 1012.55 1012.34 1012.09 1011.81 1011.50 1011.19 1010.89 1010.65 1010.48 1010.40 1010.42 1010.52 1010.70 1010.92 1011.17 1011.42
1016.94 1016.22 1015.51 1014.91 1014.43 1014.11 1013.91 1013.80 1013.74 1013.69 1013.63 1013.54 1013.45 1013.36 1013.31 1013.30 1013.34 1013.39 1013.46 1013.52 1013.54 1013.52 1013.47 1013.38 1013.26 1013.11 1012.94 1012.73 1012.48 1012.18 1011.84 1011.46 1011.08 1010.73 1010.43 1010.22 1010.12 1010.13 1010.25 1010.45 1010.73 1011.04 1011.36
1016.94 1016.25 1015.59 1015.03 1014.59 1014.29 1014.10 1014.00 1013.94 1013.90 1013.84 1013.77 1013.70 1013.65 1013.62 1013.63 1013.66 1013.71 1013.76 1013.78 1013.77 1013.72 1013.65 1013.55 1013.43 1013.29 1013.12 1012.90 1012.64 1012.31 1011.92 1011.50 1011.07 1010.66 1010.31 1010.06 1009.93 1009.93 1010.05 1010.28 1010.59 1010.97 1011.37
1016.86 1016.23 1015.64 1015.14 1014.77 1014.51 1014.36 1014.27 1014.22 1014.17 1014.12 1014.05 1014.00 1013.95 1013.94 1013.94 1013.97 1013.99 1014.01 1013.99 1013.95 1013.89 1013.80 1013.71 1013.60 1013.48 1013.32 1013.12 1012.85 1012.51 1012.11 1011.66 1011.18 1010.73 1010.34 1010.05 1009.89 1009.86 1009.98 1010.22 1010.57 1010.99 1011.46
1016.75 1016.18 1015.67 1015.27 1014.97 1014.78 1014.67 1014.61 1014.56 1014.51 1014.45 1014.38 1014.31 1014.27 1014.25 1014.25 1014.26 1014.26 1014.25 1014.21 1014.16 1014.08 1014.00 1013.92 1013.83 1013.73 1013.60 1013.42 1013.17 1012.83 1012.42 1011.95 1011.46 1010.97 1010.54 1010.22 1010.01 1009.96 1010.05 1010.29 1010.65 1011.11 1011.63
1016.65 1016.16 1015.74 1015.43 1015.22 1015.10 1015.04 1014.99 1014.95 1014.89 1014.81 1014.73 1014.66 1014.61 1014.58 1014.57 1014.57 1014.57 1014.54 1014.50 1014.44 1014.37 1014.30 1014.24 1014.18 1014.11 1014.01 1013.85 1013.61 1013.28 1012.87 1012.39 1011.88 1011.37 1010.91 1010.54 1010.30 1010.21 1010.28 1010.49 1010.85 1011.32 1011.87
1016.61 1016.19 1015.87 1015.66 1015.54 1015.48 1015.45 1015.42 1015.37 1015.29 1015.20 1015.10 1015.02 1014.97 1014.95 1014.94 1014.95 1014.95 1014.93 1014.89 1014.84 1014.79 1014.74 1014.70 1014.67 1014.63 1014.54 1014.40 1014.17 1013.85 1013.43 1012.95 1012.42 1011.90 1011.42 1011.02 1010.74 1010.61 1010.64 1010.82 1011.15 1011.60 1012.15
1016.67 1016.33 1016.09 1015.97 1015.92 1015.91 1015.91 1015.88 1015.82 1015.72 1015.61 1015.50 1015.42 1015.38 1015.37 1015.38 1015.41 1015.42 1015.43 1015.41 1015.38 1015.35 1015.33 1015.32 1015.30 1015.27 1015.20 1015.06 1014.83 1014.51 1014.09 1013.61 1013.08 1012.54 1012.05 1011.63 1011.32 1011.15 1011.13 1011.26 1011.54 1011.96 1012.47
1016.86 1016.59 1016.43 1016.38 1016.38 1016.40 1016.40 1016.36 1016.28 1016.16 1016.04 1015.93 1015.86 1015.83 1015.84 1015.89 1015.94 1015.99 1016.02 1016.02 1016.02 1016.02 1016.02 1016.02 1016.02 1016.00 1015.93 1015.79 1015.57 1015.24 1014.83 1014.35 1013.82 1013.29 1012.80 1012.37 1012.04 1011.83 1011.76 1011.83 1012.05 1012.39 1012.84
1017.19 1016.98 1016.88 1016.87 1016.90 1016.93 1016.92 1016.86 1016.75 1016.61 1016.48 1016.38 1016.32 1016.32 1016.37 1016.44 1016.53 1016.60 1016.66 1016.69 1016.71 1016.73 1016.76 1016.78 1016.80 1016.78 1016.72 1016.58 1016.36 1016.05 1015.65 1015.18 1014.68 1014.16 1013.68 1013.25 1012.90 1012.66 1012.53 1012.54 1012.68 1012.94 1013.30
1017.63 1017.47 1017.42 1017.44 1017.48 1017.49 1017.45 1017.36 1017.22 1017.07 1016.94 1016.85 1016.82 1016.84 1016.92 1017.02 1017.13 1017.22 1017.30 1017.35 1017.40 1017.44 1017.49 1017.53 1017.57 1017.58 1017.54 1017.42 1017.22 1016.94 1016.57 1016.14 1015.66 1015.18 1014.71 1014.29 1013.93 1013.66 1013.48 1013.41 1013.46 1013.62 1013.89
1018.14 1018.04 1018.02 1018.05 1018.07 1018.06 1017.99 1017.86 1017.70 1017.54 1017.42 1017.34 1017.33 1017.38 1017.48 1017.59 1017.71 1017.81 1017.89 1017.96 1018.02 1018.09 1018.17 1018.25 1018.33 1018.38 1018.38 1018.31 1018.16 1017.92 1017.61 1017.23 1016.81 1016.37 1015.93 1015.52 1015.15 1014.84 1014.61 1014.46 1014.42 1014.48 1014.63
1018.69 1018.63 1018.64 1018.66 1018.66 1018.61 1018.51 1018.36 1018.19 1018.03 1017.92 1017.86 1017.87 1017.93 1018.03 1018.14 1018.25 1018.34 1018.42 1018.50 1018.58 1018.68 1018.80 1018.93 1019.07 1019.18 1019.25 1019.26 1019.18 1019.02 1018.78 1018.48 1018.12 1017.73 1017.33 1016.93 1016.55 1016.20 1015.91 1015.68 1015.54 1015.50 1015.54
1019.23 1019.21 1019.22 1019.24 1019.21 1019.14 1019.01 1018.85 1018.69 1018.54 1018.45 1018.41 1018.42 1018.49 1018.57 1018.66 1018.75 1018.82 1018.89 1018.97 1019.07 1019.21 1019.38 1019.58 1019.79 1019.99 1020.15 1020.25 1020.27 1020.21 1020.07 1019.85 1019.57 1019.24 1018.87 1018.48 1018.09 1017.70 1017.34 1017.04 1016.80 1016.66 1016.60
1019.73 1019.74 1019.75 1019.75 1019.71 1019.62 1019.49 1019.34 1019.20 1019.09 1019.02 1019.00 1019.02 1019.06 1019.12 1019.17 1019.22 1019.26 1019.31 1019.39 1019.51 1019.69 1019.92 1020.20 1020.50 1020.79 1021.06 1021.26 1021.40 1021.45 1021.42 1021.30 1021.10 1020.83 1020.50 1020.12 1019.71 1019.28 1018.86 1018.48 1018.16 1017.92 1017.77
1020.19 1020.21 1020.22 1020.20 1020.15 1020.06 1019.95 1019.84 1019.74 1019.67 1019.64 1019.64 1019.65 1019.67 1019.68 1019.68 1019.68 1019.68 1019.71 1019.79 1019.94 1020.16 1020.45 1020.80 1021.18 1021.56 1021.92 1022.24 1022.48 1022.65 1022.72 1022.71 1022.60 1022.40 1022.12 1021.76 1021.33 1020.87 1020.40 1019.95 1019.55 1019.24 1019.01
1020.61 1020.62 1020.61 1020.58 1020.53 1020.46 1020.39 1020.34 1020.31 1020.30 1020.31 1020.33 1020.33 1020.32 1020.28 1020.22 1020.16 1020.12 1020.12 1020.20 1020.37 1020.62 1020.96 1021.36 1021.80 1022.26 1022.69 1023.09 1023.43 1023.70 1023.89 1023.99 1023.98 1023.86 1023.64 1023.31 1022.90 1022.42 1021.91 1021.41 1020.96 1020.58 1020.29
1021.00 1020.98 1020.95 1020.91 1020.86 1020.83 1020.83 1020.85 1020.90 1020.97 1021.03 1021.06 1021.05 1021.00 1020.90 1020.78 1020.66 1020.58 1020.56 1020.64 1020.81 1021.09 1021.45 1021.88 1022.35 1022.83 1023.31 1023.77 1024.18 1024.54 1024.83 1025.04 1025.14 1025.13 1024.99 1024.73 1024.35 1023.89 1023.37 1022.84 1022.35 1021.92 1021.59
1021.37 1021.31 1021.25 1021.20 1021.17 1021.19 1021.26 1021.37 1021.51 1021.66 1021.77 1021.82 1021.80 1021.71 1021.56 1021.38 1021.21 1021.08 1021.04 1021.10 1021.27 1021.55 1021.91 1022.33 1022.79 1023.27 1023.75 1024.23 1024.68 1025.11 1025.49 1025.81 1026.04 1026.15 1026.13 1025.96 1025.66 1025.25 1024.76 1024.24 1023.73 1023.27 1022.90
1021.72 1021.63 1021.54 1021.47 1021.47 1021.54 1021.68 1021.89 1022.12 1022.34 1022.51 1022.58 1022.56 1022.43 1022.24 1022.01 1021.79 1021.63 1021.57 1021.61 1021.77 1022.02 1022.35 1022.73 1023.14 1023.57 1024.02 1024.47 1024.94 1025.41 1025.88 1026.30 1026.67 1026.92 1027.05 1027.02 1026.83 1026.51 1026.08 1025.59 1025.09 1024.62 1024.22
1022.05 1021.93 1021.81 1021.74 1021.75 1021.88 1022.10 1022.39 1022.71 1023.01 1023.22 1023.32 1023.29 1023.15 1022.92 1022.65 1022.41 1022.22 1022.14 1022.17 1022.30 1022.52 1022.79 1023.10 1023.44 1023.79 1024.16 1024.57 1025.02 1025.51 1026.04 1026.57 1027.06 1027.47 1027.76 1027.89 1027.85 1027.66 1027.33 1026.90 1026.43 1025.97 1025.54
1022.36 1022.21 1022.07 1022.00 1022.04 1022.21 1022.50 1022.87 1023.27 1023.63 1023.89 1024.01 1023.99 1023.84 1023.59 1023.31 1023.05 1022.86 1022.77 1022.78 1022.89 1023.06 1023.28 1023.51 1023.75 1024.00 1024.28 1024.61 1025.01 1025.50 1026.06 1026.67 1027.29 1027.84 1028.30 1028.60 1028.72 1028.67 1028.46 1028.13 1027.71 1027.26 1026.82
1022.64 1022.48 1022.33 1022.26 1022.32 1022.53 1022.87 1023.31 1023.77 1024.18 1024.49 1024.64 1024.64 1024.49 1024.25 1023.98 1023.73 1023.54 1023.46 1023.47 1023.56 1023.69 1023.85 1023.99 1024.14 1024.28 1024.46 1024.70 1025.04 1025.49 1026.06 1026.72 1027.42 1028.09 1028.69 1029.14 1029.43 1029.53 1029.45 1029.22 1028.87 1028.46 1028.02
1022.87 1022.72 1022.58 1022.53 1022.61 1022.85 1023.23 1023.71 1024.21 1024.67 1025.01 1025.20 1025.22 1025.10 1024.89 1024.65 1024.42 1024.26 1024.20 1024.22 1024.30 1024.41 1024.51 1024.60 1024.65 1024.70 1024.78 1024.93 1025.19 1025.58 1026.12 1026.78 1027.51 1028.26 1028.96 1029.54 1029.96 1030.20 1030.25 1030.12 1029.86 1029.49 1029.07
1023.06 1022.94 1022.83 1022.79 1022.89 1023.15 1023.56 1024.06 1024.60 1025.09 1025.46 1025.68 1025.75 1025.67 1025.50 1025.30 1025.12 1025.00 1024.97 1025.01 1025.10 1025.20 1025.28 1025.32 1025.31 1025.28 1025.28 1025.34 1025.51 1025.83 1026.30 1026.92 1027.63 1028.39 1029.13 1029.79 1030.30 1030.65 1030.81 1030.80 1030.62 1030.32 1029.93
Thickness
5758 5761 5762 5762 5762 5762 5761 5761 5761 5760 5760 5759 5759 5759 5758 5758 5757 5757 5756 5756 5756 5756 5756 5756 5757 5757 5758 5758 5759 5759 5759 5759 5760 5760 5760 5761 5761 5762 5762 5762 5762 5762 5763
5760 5760 5761 5761 5760 5760 5759 5759 5758 5758 5757 5757 5756 5756 5756 5755 5755 5755 5754 5754 5754 5754 5753 5754 5754 5755 5755 5755 5756 5756 5757 5757 5757 5757 5758 5758 5759 5759 5760 5760 5760 5760 5761
5759 5759 5759 5759 5758 5758 5757 5757 5756 5756 5755 5754 5754 5753 5753 5753 5752 5752 5752 5751 5751 5751 5751 5751 5751 5752 5752 5753 5753 5753 5754 5754 5754 5755 5755 5755 5756 5757 5757 5758 5758 5758 5758
5757 5757 5757 5757 5756 5756 5755 5755 5754 5753 5752 5752 5751 5751 5751 5750 5750 5749 5749 5749 5749 5749 5749 5749 5749 5749 5749 5750 5750 5750 5751 5751 5751 5752 5752 5753 5753 5754 5755 5755 5756 5756 5756
5756 5755 5755 5755 5754 5753 5753 5752 5752 5751 5750 5749 5749 5748 5748 5748 5747 5746 5746 5746 5746 5746 5746 5746 5746 5746 5746 5746 5747 5747 5747 5748 5748 5749 5749 5750 5750 5751 5752 5753 5753 5753 5754
5753 5753 5752 5752 5752 5751 5750 5750 5749 5748 5748 5747 5747 5746 5745 5745 5744 5744 5743 5743 5743 5743 5743 5743 5742 5743 5743 5743 5743 5743 5744 5744 5745 5745 5746 5747 5748 5749 5749 5750 5750 5750 5750
5750 5750 5749 5749 5749 5748 5748 5747 5746 5746 5745 5744 5744 5743 5743 5742 5741 5741 5740 5740 5740 5740 5740 5739 5739 5739 5739 5739 5739 5740 5740 5740 5741 5742 5743 5744 5745 5746 5746 5746 5746 5747 5747
5748 5747 5746 5746 5745 5745 5745 5744 5744 5743 5742 5741 5741 5740 5739 5739 5738 5738 5737 5737 5737 5737 5736 5736 5736 5736 5736 5736 5736 5736 5736 5736 5737 5738 5739 5740 5741 5742 5743 5743 5743 5743 5744
5745 5744 5743 5742 5742 5741 5741 5741 5741 5740 5739 5738 5737 5737 5736 5735 5735 5734 5734 5734 5734 5734 5733 5733 5733 5732 5732 5732 5732 5732 5732 5732 5733 5734 5736 5737 5738 5739 5739 5739 5739 5739 5740
5741 5740 5740 5739 5738 5738 5738 5738 5738 5737 5736 5735 5734 5734 5733 5732 5732 5731 5731 5731 5731 5730 5730 5729 5729 5729 5728 5728 5728 5728 5728 5729 5729 5731 5732 5733 5734 5735 5735 5735 5735 5735 5736
5736 5737 5737 5736 5735 5735 5734 5734 5734 5734 5733 5732 5731 5730 5729 5729 5728 5728 5728 5728 5727 5727 5727 5726 5726 5725 5724 5724 5724 5724 5724 5724 5725 5726 5728 5729 5730 5731 5732 5732 5732 5732 5732
5731 5733 5734 5733 5733 5732 5731 5731 5731 5730 5729 5729 5728 5727 5726 5726 5725 5725 5725 5725 5724 5723 5723 5722 5722 5721 5720 5719 5719 5719 5719 5720 5721 5722 5723 5725 5726 5727 5728 5728 5728 5728 5728
5729 5730 5731 5731 5730 5729 5728 5728 5727 5727 5726 5725 5724 5724 5723 5723 5722 5722 5722 5721 5720 5719 5719 5718 5717 5716 5715 5715 5714 5714 5714 5715 5716 5717 5719 5720 5721 5722 5723 5723 5723 5723 5724
5727 5728 5729 5729 5728 5726 5725 5725 5724 5723 5723 5722 5722 5721 5721 5720 5719 5718 5718 5717 5716 5715 5714 5714 5713 5712 5711 5710 5710 5709 5710 5710 5710 5712 5713 5715 5716 5717 5718 5718 5718 5718 5719
5725 5726 5726 5726 5725 5724 5723 5722 5722 5720 5720 5719 5718 5718 5717 5717 5715 5715 5714 5713 5712 5711 5711 5710 5709 5707 5706 5706 5705 5705 5704 5704 5705 5706 5707 5709 5710 5711 5712 5713 5713 5713 5713
5723 5723 5724 5724 5723 5722 5720 5720 5719 5718 5717 5716 5716 5715 5714 5713 5712 5711 5710 5709 5708 5708 5707 5706 5704 5703 5701 5701 5700 5700 5700 5700 5700 5701 5701 5702 5704 5705 5706 5707 5708 5707 5707
5721 5722 5722 5722 5721 5719 5718 5717 5717 5716 5715 5714 5713 5712 5711 5710 5709 5708 5706 5705 5704 5704 5703 5702 5700 5698 5697 5696 5695 5695 5695 5695 5695 5695 5696 5696 5697 5698 5700 5701 5702 5702 5702
5721 5720 5721 5721 5718 5717 5716 5715 5714 5713 5712 5711 5710 5709 5708 5707 5706 5705 5703 5702 5701 5700 5699 5697 5695 5693 5691 5690 5689 5689 5689 5690 5690 5690 5690 5691 5691 5692 5693 5694 5695 5696 5696
5720 5719 5718 5718 5716 5715 5713 5712 5711 5710 5709 5708 5707 5706 5705 5704 5703 5701 5700 5699 5698 5696 5694 5693 5690 5689 5686 5685 5684 5684 5684 5684 5684 5684 5684 5685 5685 5686 5686 5687 5688 5689 5690
5719 5718 5717 5715 5714 5712 5710 5709 5707 5706 5705 5704 5703 5703 5702 5701 5700 5698 5697 5695 5694 5692 5690 5688 5686 5684 5682 5681 5681 5679 5678 5678 5678 5678 5679 5679 5679 5680 5680 5681 5681 5682 5683
5716 5715 5714 5713 5711 5710 5707 5704 5703 5701 5701 5701 5700 5700 5699 5698 5697 5695 5694 5692 5690 5688 5686 5684 5682 5679 5677 5677 5675 5672 5672 5673 5673 5672 5673 5673 5673 5673 5674 5674 5675 5675 5676
5713 5713 5712 5711 5709 5708 5706 5704 5702 5700 5698 5697 5697 5697 5696 5695 5694 5692 5691 5689 5687 5684 5682 5680 5679 5676 5674 5673 5671 5667 5663 5664 5666 5667 5667 5667 5666 5667 5668 5668 5668 5669 5669
5711 5710 5711 5709 5708 5706 5705 5703 5700 5697 5695 5694 5693 5692 5692 5692 5691 5689 5687 5686 5684 5682 5679 5677 5676 5674 5670 5669 5668 5665 5660 5656 5656 5659 5660 5660 5660 5660 5661 5661 5661 5662 5663
5709 5710 5709 5707 5706 5704 5703 5700 5697 5693 5690 5689 5689 5689 5689 5688 5687 5686 5684 5683 5681 5679 5676 5675 5673 5672 5669 5666 5664 5663 5662 5659 5654 5651 5652 5653 5654 5654 5654 5655 5655 5656 5656
5708 5707 5706 5705 5703 5702 5700 5698 5695 5692 5689 5688 5687 5686 5685 5684 5683 5682 5681 5679 5677 5675 5673 5671 5670 5668 5667 5664 5662 5660 5658 5655 5653 5649 5645 5646 5647 5648 5648 5649 5649 5650 5650
5705 5704 5703 5701 5700 5699 5697 5695 5693 5690 5687 5685 5683 5682 5681 5680 5679 5678 5677 5676 5674 5672 5670 5668 5666 5665 5663 5661 5659 5658 5655 5653 5650 5647 5643 5640 5640 5641 5643 5643 5644 5644 5645